COSMOS 2564 (761)

Last updated on Wed May 14 2025 00:03:13 GMT+0000 (Coordinated Universal Time)

1 54377U 22161A 25133.43184076 .00000053 00000+0 00000+0 0 9991 2 54377 64.7365 205.9849 0010873 220.9285 139.0688 2.13102083 19110
UTC large
Height (km)
Speed (km/s)
/
Latitude / Longitude
Inclination (degrees)
Orbital Period (minutes)
Azimuth
Elevation
Range (km)
Doppler Factor

Next 0 passes for location: London (51.5072 / 0.1276)

Sorry there are no passes over London.